TIME,DELAY(SENSOR),PRES,T(CTD),SAL,OXYGEN,RAWTEMP,T(OPTODE),TCPHASE,FLUOR,BETA(BETA700),BETA(BETA412),BETA(BETA440),CDOM,C(CSC),ED(ED411.90),ED(ED443.80),ED(ED489.40),ED(ED554.70),LU(LU412.20),LU(LU443.80),LU(LU489.40),LU(LU555.00),COMP,TILTX,TILTX(TILTY),CHECK
1367684175,5805,497.0299987792969000,16.3283004760742200,36.2392997741699200,206.9958038330078000,210.6168975830078000,16.3283805847167970,32.9615707397460940,51,100,96,80,68,10946,2146958198,2147516333,2147279076,2147465481,2147075346,2146949952,2147661257,2147125769,627,-1,8,31007
1367684302,5805,486.4400024414062500,16.5562000274658200,36.2784004211425800,210.1078033447265600,203.0847930908203000,16.5553703308105470,32.6799316406250000,51,100,95,79,69,10941,2146960868,2147513161,2147275666,2147466642,2147079113,2146956461,2147659209,2147126537,376,-1,8,25439
1367684431,5805,475.7500000000000000,16.7782993316650400,36.3214988708496100,213.6548004150390600,195.5592041015625000,16.7821903228759770,32.3791503906250000,50,101,95,80,69,10938,2146958336,2147514075,2147272237,2147460187,2147084068,2146954596,2147658688,2147124534,3209,-1,8,55366
1367684570,5805,464.3200073242187500,16.9095001220703120,36.3466987609863300,216.6614074707031200,191.4279937744140600,16.9067306518554700,32.1589508056640600,50,101,95,80,68,10941,2146961874,2147512530,2147270582,2147460882,2147082806,2146959204,2147657673,2147120557,3211,-1,8,53770
1367684711,5803,452.7900085449219000,17.0592002868652340,36.3764991760253900,218.8589019775390600,186.6882019042968800,17.0496406555175780,31.9766502380371100,50,102,96,80,69,10941,2146960128,2147515648,2147271067,2147457764,2147080274,2146958400,2147657060,2147119049,2782,-1,8,34817
1367684850,5803,441.1600036621094000,17.1989002227783200,36.4017982482910160,220.6320953369140600,181.6175994873047000,17.2025508880615230,31.8130092620849600,50,101,95,80,68,10943,2146959945,2147515382,2147271405,2147456804,2147084105,2146954084,2147656237,2147123995,2880,-1,8,25367
1367684977,5802,430.6400146484375000,17.2373008728027340,36.4118003845214840,222.1992950439453000,180.6045074462890600,17.2331008911132800,31.7173900604248050,51,101,96,81,68,10936,2146959515,2147516425,2147270646,2147456740,2147081664,2146959597,2147659218,2147125741,3410,-1,8,36254
1367685107,5804,419.5899963378906000,17.3656005859375000,36.4347000122070300,223.7731018066406200,176.4295043945312500,17.3590297698974600,31.5791797637939450,51,101,95,79,67,10938,2146957677,2147513920,2147268973,2147455725,2147080210,2146959158,2147655424,2147126802,2831,-1,8,28996
1367685234,5804,408.6900024414062500,17.5025005340576170,36.4602012634277340,224.7628936767578000,171.7825012207031200,17.4992198944091800,31.4651393890380860,51,101,95,81,67,10939,2146962852,2147513554,2147270235,2147457188,2147081929,2146960950,2147655478,2147125933,2462,-1,8,51767
1367685363,5804,397.6099853515625000,17.6112995147705080,36.4824981689453100,227.0704956054687500,168.2313995361328000,17.6063804626464840,31.2996196746826170,50,101,94,80,68,10937,2146958226,2147515538,2147269613,2147455204,2147080576,2146953499,2147657910,2147126957,2443,-1,8,38920
1367685502,5801,385.9200134277344000,17.7098999023437500,36.5004005432128900,228.8695983886718800,165.0868072509765600,17.7012805938720700,31.1667594909667970,50,98,94,79,67,10942,2146957385,2147512576,2147268059,2147454025,2147082660,2146961426,2147652553,2147131949,1372,-1,8,52450
1367685629,5807,375.5799865722656000,17.7884998321533200,36.5152015686035160,230.0760040283203000,162.3591003417968800,17.7836208343505860,31.0699596405029300,50,99,96,79,67,10944,2146960448,2147517604,2147268525,2147451867,2147080658,2146961636,2147653046,2147128612,499,-1,8,52268
1367685771,5803,364.3500061035156000,17.8777008056640620,36.5273017883300800,229.9604949951172000,159.3049011230468800,17.8758201599121100,31.0346508026123050,50,100,95,80,67,10947,2146960064,2147514724,2147269677,2147452918,2147083401,2146963364,2147658249,2147129280,3481,-1,8,23391
1367685910,5803,353.6199951171875000,17.9158992767334000,36.5332984924316400,229.6091003417968800,158.1085968017578000,17.9119396209716800,31.0356101989746100,50,99,95,80,67,10941,2146957924,2147514066,2147269293,2147450989,2147080228,2146961453,2147658057,2147129792,2220,-1,8,49960
1367686059,5806,340.7900085449219000,17.9813003540039060,36.5428009033203100,229.4172973632812500,155.9850006103515600,17.9760704040527340,31.0165596008300780,51,98,95,81,68,10943,2146957988,2147514029,2147267081,2147452525,2147081572,2146958409,2147654089,2147132763,2128,-1,8,5154
1367686162,5804,330.4299926757812500,18.0459995269775400,36.5505981445312500,228.4795989990234400,153.4653930664062500,18.0521602630615230,31.0295906066894530,50,101,96,81,67,10937,2146958089,2147513846,2147268900,2147454564,2147080777,2146964032,2147658294,2147127588,2120,-1,8,18051
1367686277,5804,318.8200073242187500,18.1683998107910160,36.5708999633789060,229.0476989746093800,149.6699066162109400,18.1668090820312500,30.9503307342529300,50,100,95,81,66,10938,2146957577,2147515090,2147269485,2147452498,2147081005,2146966692,2147662866,2147126811,1636,-1,8,5738
1367686383,5805,308.0100097656250000,18.2077007293701170,36.5758018493652340,229.7127075195312500,148.2657012939453000,18.2092399597167970,30.8985404968261720,50,102,94,80,67,10935,2146960173,2147516324,2147270793,2147450276,2147082075,2146965001,2147662180,2147129792,1218,-1,8,51828
1367686498,5804,296.2300109863281000,18.1840991973876950,36.5555000305175800,224.2232971191406200,149.3242034912109400,18.1772594451904300,31.1879196166992200,50,103,96,81,68,10936,2146958893,2147513755,2147271734,2147448978,2147079158,2146974829,2147673033,2147129234,1032,-1,8,63753
1367686613,5804,284.5499877929687500,18.3225002288818360,36.5796012878418000,221.3110961914062500,144.1703948974609400,18.3329906463623050,31.2679004669189450,51,100,96,81,68,10933,2146961737,2147513152,2147271241,2147450450,2147084598,2146971163,2147673801,2147129124,668,-1,8,27393
1367686732,5806,273.9200134277344000,18.4251995086669920,36.5942001342773440,223.2597045898437500,141.2274932861328000,18.4219398498535160,31.1280403137207030,51,102,94,80,68,10937,2146957933,2147511049,2147268242,2147448374,2147074715,2146974345,2147691913,2147131885,653,-1,8,56092
1367686883,5805,262.8999938964844000,18.5118999481201170,36.6046981811523440,223.6083984375000000,138.2984008789062500,18.5104904174804700,31.0710906982421880,50,102,94,80,67,10933,2146960676,2147512740,2147271716,2147448621,2147078848,2146987501,2147709494,2147130816,646,-1,8,53781
1367687040,5806,250.5200042724609400,18.6830997467041000,36.6198997497558600,225.1082000732422000,132.1566009521484400,18.6962299346923830,30.9129104614257800,50,99,95,79,68,10941,2146957522,2147518848,2147268288,2147448301,2147071542,2146999497,2147735021,2147132461,789,-1,8,53222
1367687167,5804,239.0599975585937500,18.8540992736816400,36.6305007934570300,220.7684020996093800,127.2099990844726600,18.8458995819091800,31.0678596496582030,51,102,95,81,68,10934,2146956224,2147515428,2147271003,2147444662,2147072320,2147026093,2147776265,2147133641,921,-1,8,53652
1367687296,5805,227.8899993896484400,19.0930004119873050,36.6460990905761700,219.1036071777343800,119.3459014892578100,19.0839691162109380,31.0489292144775400,50,102,95,81,68,10934,2146958985,2147519451,2147272704,2147448091,2147076123,2147044278,2147813696,2147139446,684,-1,8,22884
1367687423,5804,217.4100036621093800,19.2406997680664060,36.6486015319824200,219.0798034667968800,114.3742980957031200,19.2345600128173830,30.9836502075195300,50,104,95,81,68,10932,2146958080,2147518016,2147268278,2147444818,2147082925,2147075136,2147882066,2147144192,3474,-2,8,20552
1367687562,5803,206.3500061035156200,19.3556003570556640,36.6391983032226560,220.8414001464843800,110.2770996093750000,19.3587207794189450,30.8385200500488280,51,103,96,82,68,10931,2146960502,2147520091,2147275739,2147446454,2147087698,2147133952,2147977536,2147150317,2211,-1,8,16905
1367687674,5805,198.1399993896484400,19.5111999511718750,36.6413002014160160,222.7270965576172000,105.4891967773437500,19.5038700103759770,30.6786994934082030,51,105,95,81,67,10930,2146957942,2147519826,2147281435,2147446857,2147097216,2147173504,2148056137,2147154825,2277,-2,9,42437
1367687741,5808,193.4499969482422000,19.6616001129150400,36.6529998779296900,223.3137969970703000,100.5455017089843800,19.6538200378417970,30.5837898254394530,51,105,97,82,67,10926,2146961142,2147519890,2147284800,2147444269,2147099181,2147227986,2148132352,2147159369,1884,-1,8,11492
1367687796,5806,189.6300048828125000,19.7094993591308600,36.6440010070800800,227.5722961425781200,98.8719635009765600,19.7046108245849600,30.3489608764648440,52,111,99,84,66,10919,2146956928,2147523894,2147282916,2147442724,2147104969,2147267821,2148207049,2147161956,1430,-2,8,53476
1367687851,5806,185.9199981689453000,19.8134994506835940,36.6567001342773440,228.5534973144531200,95.6187973022461000,19.8033409118652340,30.2579898834228500,52,109,98,83,66,10916,2146958272,2147525805,2147286153,2147438765,2147115602,2147304896,2148257764,2147164032,873,-1,8,43860
1367687906,5806,182.2700042724609400,19.8682994842529300,36.6580009460449200,229.7023010253906200,93.7399673461914000,19.8603801727294920,30.1772804260253900,52,108,96,82,67,10918,2146960310,2147526317,2147284315,2147442121,2147119936,2147351771,2148334454,2147169142,638,-1,8,56991
1367687985,5805,177.5899963378906200,19.9134998321533200,36.6585006713867200,231.4266052246093800,92.2877731323242200,19.9044799804687500,30.0748405456542970,54,109,97,82,66,10918,2146959826,2147527643,2147291940,2147444946,2147130870,2147416201,2148428352,2147177225,313,-1,8,27873
1367688064,5807,173.8200073242187500,19.9349002838134770,36.6519012451171900,235.0695037841797000,91.3933029174804700,19.9316406250000000,29.8889503479003900,55,109,99,83,64,10915,2146959222,2147530907,2147291446,2147443428,2147145609,2147474541,2148517394,2147183012,635,-1,8,8654
1367688155,5806,169.7899932861328000,19.9454994201660160,36.6433982849121100,238.7964935302734400,90.7126388549804700,19.9523105621337900,29.7053203582763670,54,111,98,83,65,10915,2146960905,2147528256,2147292973,2147442377,2147144603,2147442514,2148437842,2147178825,787,-1,9,49417
1367688246,5807,165.9799957275390600,20.0067996978759770,36.6484985351562500,242.0231018066406200,89.1153564453125000,20.0008296966552730,29.5358505249023440,55,111,99,83,64,10910,2146960713,2147525110,2147288411,2147441362,2147141933,2147401993,2148362861,2147172507,919,-1,9,20860
1367688328,5805,162.8399963378906200,20.1061000823974600,36.6570014953613300,241.4741058349609400,86.1316070556640600,20.0914897918701170,29.5225296020507800,57,109,99,83,64,10913,2146962276,2147537481,2147306459,2147442413,2147190939,2147727753,2148889472,2147203483,927,-1,8,59492
1367688443,5807,158.9499969482422000,20.1378002166748050,36.6489982604980500,242.8441925048828000,84.8837738037109400,20.1294193267822270,29.4439907073974600,66,112,98,83,64,10905,2146965476,2147536978,2147307081,2147441389,2147205979,2147778550,2148955785,2147207798,719,-1,8,18557
1367688582,5804,155.2200012207031200,20.2187995910644530,36.6554985046386700,242.3287048339843800,82.3371505737304700,20.2068290710449220,29.4348506927490230,67,113,98,82,64,10905,2146965174,2147540672,2147313837,2147441974,2147231926,2147894784,2149122304,2147216374,3344,-1,9,43172
1367688706,5806,150.9700012207031200,20.2600002288818360,36.6581001281738300,240.4799957275390600,80.8204269409179700,20.2529506683349600,29.4999198913574220,62,110,98,82,64,10910,2146965156,2147544457,2147321664,2147442240,2147268525,2148052132,2149341769,2147234322,3118,-1,9,35857
1367688785,5805,147.6600036621093800,20.2922992706298830,36.6594009399414060,239.4960021972656200,79.3656768798828100,20.2971897125244140,29.5264492034912100,62,108,96,84,64,10906,2146960429,2147524150,2147286043,2147438930,2147154093,2147340461,2148183561,2147162560,3025,-1,8,24767
1367688876,5806,143.6399993896484400,20.3848991394042970,36.6519012451171900,241.3459014892578000,76.2423629760742200,20.3922004699707030,29.4013404846191400,76,114,99,84,64,10906,2146968283,2147552182,2147337334,2147437641,2147345280,2148351606,2149751853,2147257938,3027,-2,9,799
1367688969,5807,139.9700012207031200,20.5988998413085940,36.6678009033203100,243.8751068115234400,70.1957397460937500,20.5762500762939450,29.2091598510742200,79,110,98,83,63,10894,2146966217,2147556086,2147342564,2147441691,2147390930,2148503625,2149965412,2147273234,2571,-1,9,4063
1367689084,5806,135.6600036621093800,20.6345996856689450,36.6563987731933600,246.7409973144531200,68.5603179931640600,20.6260509490966800,29.0601692199707030,76,110,99,83,64,10899,2146970084,2147562075,2147352704,2147441124,2147452324,2148705243,2150224749,2147291483,2733,-1,8,10095
1367689187,5808,131.8200073242187500,20.7954998016357420,36.6691017150878900,245.7922973632812500,63.3426818847656250,20.7850208282470700,29.0359992980957030,78,113,98,84,65,10894,2146970020,2147567835,2147367862,2147440786,2147525897,2148927442,2150504365,2147312676,13,-1,9,40548
1367689290,5810,127.5899963378906200,21.0508003234863280,36.6792984008789060,243.3385009765625000,55.0506896972656250,21.0378799438476560,29.0405292510986330,72,113,97,83,64,10892,2146974893,2147578258,2147380361,2147440493,2147637403,2149259108,2150932324,2147344841,47,-1,8,34792
1367689381,5803,123.3499984741211000,21.2152004241943360,36.7006988525390600,234.5019989013672000,49.6220016479492200,21.2035903930664060,29.3776302337646500,66,108,97,83,65,10907,2146977298,2147587181,2147389933,2147440731,2147744045,2149521828,2151249380,2147364928,2422,-1,8,29113
1367689472,5805,119.4599990844726600,21.3735008239746100,36.7039985656738300,230.5702056884765600,44.4717292785644500,21.3609294891357420,29.4980602264404300,64,110,97,84,65,10906,2146979812,2147595136,2147401609,2147441984,2147861540,2149795995,2151543716,2147388864,2606,-1,9,495
1367689565,5809,115.9899978637695300,21.4638996124267580,36.7097015380859400,229.2915954589843800,41.4594383239746100,21.4530105590820300,29.5210208892822270,64,111,96,82,66,10912,2146985920,2147612388,2147431021,2147437376,2148090980,2150455963,2152381046,2147444480,2732,-1,9,23992
1367689680,5804,112.0800018310546900,21.5394992828369140,36.7290992736816400,222.9566040039062500,38.9592514038085940,21.5294609069824220,29.7988605499267580,65,112,96,83,65,10910,2146996781,2147623478,2147449755,2147438729,2148289344,2150884315,2152893741,2147485595,2182,-2,9,37394
1367689795,5804,108.0599975585937500,21.5746002197265620,36.7296981811523440,218.6074981689453000,37.5588684082031250,21.5722999572753900,29.9993705749511720,63,108,96,82,67,10910,2147005504,2147645458,2147490605,2147438436,2148616036,2151680173,2153912027,2147559012,1580,-2,9,64318
1367689910,5804,103.4300003051757800,21.6047000885009770,36.6794013977050800,229.4763031005859400,36.9043693542480500,21.5923309326171880,29.4537696838378900,64,120,97,85,64,10905,2147019181,2147679826,2147543652,2147441161,2149116635,2152747008,2155144621,2147655424,1298,-1,9,28698
1367689989,5803,99.5100021362304700,21.7161006927490230,36.6929016113281250,232.3339996337890600,32.9030990600585940,21.7147903442382800,29.2663993835449220,69,113,96,83,65,10900,2147035236,2147700370,2147569197,2147448813,2149503753,2153450203,2155904155,2147717522,1563,-2,8,14217
1367690044,5805,96.9499969482421900,21.7411003112792970,36.6768989562988300,230.7241058349609400,32.1376609802246100,21.7382297515869140,29.3331794738769530,72,114,98,84,63,10903,2147043245,2147711762,2147602020,2147446582,2149817801,2154026194,2156566363,2147773394,1139,-1,9,19949
1367690099,5806,94.6100006103515600,21.7689990997314450,36.6729011535644500,234.3175964355468800,31.2838001251220700,21.7643699645996100,29.1524391174316400,71,113,99,83,63,10895,2147054390,2147731346,2147631844,2147447762,2150147410,2154579995,2157122505,2147822400,622,-1,8,25044
1367690154,5807,92.4400024414062500,21.7765007019042970,36.6613998413085940,236.4575958251953000,31.1550693511962900,21.7683200836181640,29.0514698028564450,77,113,97,84,64,10889,2147065563,2147750473,2147648731,2147448685,2150524726,2155214884,2157833444,2147879469,330,-2,9,22910
1367690212,5806,90.3199996948242200,21.8010005950927730,36.6544990539550800,239.9358978271484400,30.2063999176025400,21.7973709106445300,28.8799095153808600,100,119,98,85,64,10863,2147075382,2147763812,2147672640,2147448932,2150876434,2155794779,2158494784,2147941714,157,-1,9,29718
1367690267,5805,88.5400009155273400,21.8330001831054700,36.6593017578125000,241.3020935058593800,28.8326797485351560,21.8394508361816400,28.8007507324218750,95,117,98,83,63,10872,2147082404,2147770962,2147677458,2147454409,2151121024,2156067812,2158798564,2147983808,3472,-1,9,14372
1367690322,5804,86.8300018310546900,21.8677997589111330,36.6567993164062500,240.9217987060547000,28.0398006439209000,21.8637409210205080,28.8080005645751950,96,119,98,86,63,10868,2147098651,2147786889,2147699126,2147451584,2151508946,2156649152,2159429403,2148049408,3099,-2,9,30494
1367690377,5803,85.1200027465820300,21.9389991760253900,36.6232986450195300,244.7752075195312500,25.8685798645019530,21.9302806854248050,28.6080703735351560,131,130,100,83,64,10832,2147108544,2147796297,2147720594,2147455241,2151891657,2157196150,2160079698,2148123282,3013,-2,9,3980
1367690444,5802,83.3399963378906200,22.0669994354248050,36.6195983886718750,246.7393035888672000,22.0022392272949220,22.0488300323486330,28.4729309082031250,135,129,101,85,63,10817,2147117065,2147808420,2147736393,2147456822,2152184100,2157484873,2160431232,2148182893,3000,-1,9,10579
1367690535,5805,80.5199966430664000,22.1744995117187500,36.6202011108398440,252.0529937744140600,17.8439998626709000,22.1764106750488280,28.1910591125488280,118,128,100,86,63,10804,2147140708,2147838016,2147785042,2147459062,2152852973,2158257709,2161314706,2148317440,3143,-1,9,5395
1367690590,5805,77.9100036621093800,22.2586994171142580,36.6094017028808600,254.2140045166015600,15.5115900039672850,22.2480106353759770,28.0703601837158200,113,130,101,86,64,10810,2147169362,2147867712,2147848310,2147466404,2153528768,2159111433,2162254354,2148450715,3544,-1,9,5459
1367690645,5807,75.1600036621093800,22.2775993347167970,36.6007003784179700,255.2998962402343800,14.7002201080322270,22.2729301452636720,28.0142593383789060,114,131,102,87,63,10800,2147138468,2147805860,2147736896,2147459931,2152483181,2156627446,2158996434,2148199762,467,-1,9,61239
1367690700,5806,72.4400024414062500,22.3547000885009770,36.6026992797851560,256.3428955078125000,12.3590602874755860,22.3448390960693360,27.9416408538818360,105,129,102,88,63,10797,2147217865,2147928996,2147960192,2147485284,2154844617,2160582208,2163614400,2148704850,732,-1,9,26633
1367690755,5808,69.8300018310546900,22.4633007049560550,36.6041984558105500,255.4221954345703000,8.7934608459472660,22.4544200897216800,27.9361991882324220,95,126,102,85,62,10803,2147319451,2148080594,2148205659,2147510573,2157722971,2165124726,2168875483,2149313627,916,-1,9,41941
1367690810,5806,67.7600021362304700,22.4761009216308600,36.6057014465332000,255.8206024169922000,8.1515455245971680,22.4741497039794920,27.9116191864013670,92,138,104,87,62,10799,2147373010,2148148406,2148305810,2147514432,2159322660,2167410761,2171239305,2149614253,692,-1,8,48643
1367690868,5804,65.8399963378906200,22.4839992523193360,36.6059989929199200,256.5952148437500000,7.8248348236083980,22.4841995239257800,27.8750801086425780,90,128,103,89,63,10804,2147421796,2148217225,2148376393,2147520429,2160646125,2169340553,2173233435,2149833645,431,-1,9,18632
1367690923,5805,64.2200012207031200,22.4927005767822270,36.6063003540039060,256.8377990722656000,7.4941902160644530,22.4943695068359380,27.8608894348144530,89,135,104,88,63,10798,2147457581,2148268169,2148426770,2147520393,2161831049,2170845595,2174623917,2150011611,255,-2,9,626
1367691002,5807,62.3499984741210940,22.5923004150390620,36.6002998352050800,259.2200927734375000,4.5123867988586430,22.5860805511474600,27.7255401611328120,85,135,103,87,60,10796,2147518875,2148338715,2148488475,2147523766,2163462189,2172988882,2176568996,2150278217,3544,-2,9,18859
1367691117,5805,60.6500015258789060,22.7332000732421880,36.5892982482910160,273.1482849121094000,0.1700430959463120,22.7197303771972660,27.1162891387939450,80,131,101,90,63,10804,2147553024,2148377892,2148558857,2147543021,2164442422,2173919890,2177088091,2150361261,446,-2,9,35254
1367691233,5807,57.6300010681152340,22.8731994628906250,36.5458984375000000,269.5043029785156000,-4.6664981842041020,22.8687095642089840,27.1997509002685550,77,133,106,86,61,10791,2147831396,2148732909,2149002496,2147578980,2172471917,2185237302,2188668580,2151818660,94,-1,9,39586
1367691289,5806,55.4700012207031250,22.9395008087158200,36.4768981933593750,272.6144104003906000,-6.5873270034790040,22.9279193878173830,27.0551109313964840,75,131,103,88,60,10799,2147674614,2148479542,2148615981,2147555072,2168405348,2178130294,2179987584,2150940672,431,-1,9,8416
1367691431,5807,52.3300018310546900,22.9878005981445300,36.4353981018066400,288.9916992187500000,-8.3440132141113280,22.9820899963378900,26.4211597442626950,76,131,103,87,61,10756,2147962925,2148866852,2149128493,2147602395,2176233700,2189352192,2191422857,2152319488,156,-1,8,34074
1367691466,5806,51.7200012207031250,22.9997005462646500,36.4267997741699200,293.8046875000000000,-8.9758958816528320,23.0015792846679700,26.2410697937011720,76,133,106,89,57,10766,2147949897,2148847643,2149106971,2147604653,2175539739,2188207872,2190063085,2152171821,250,-1,8,59659
1367691562,5806,49.7700004577636700,23.0223007202148440,36.4011993408203100,281.9010925292969000,-9.7389755249023440,23.0251102447509770,26.6644802093505860,73,134,105,88,61,10752,2148205101,2149173604,2149542080,2147664813,2183356882,2198769746,2200471817,2153730230,259,-1,9,26072
1367691634,5804,47.6800003051757800,23.0363998413085940,36.3806991577148440,269.7124023437500000,-10.2013101577758790,23.0393791198730470,27.1243801116943360,74,135,105,89,60,10743,2148249078,2149185252,2149465088,2147631259,2185244324,2200413824,2201299858,2153978249,3275,-2,8,19855
1367691706,5803,45.6399993896484400,23.0384006500244140,36.3730010986328100,265.1130981445312500,-10.4074401855468750,23.0457401275634770,27.3037109375000000,72,135,104,89,59,10743,2148368978,2149326226,2149597001,2147644342,2188967616,2204959625,2205288210,2154718793,2939,-2,8,64511
1367691765,5804,43.7900009155273440,23.0583992004394530,36.3650016784668000,265.8728027343750000,-10.8760700225830080,23.0601902008056640,27.2676792144775400,72,134,103,89,59,10738,2148406372,2149352667,2149611172,2147648475,2190587629,2206592987,2206578861,2155073526,2763,-1,9,5754
1367691834,5806,41.3300018310546900,23.0741004943847660,36.3604011535644500,263.5596923828125000,-11.4168901443481450,23.0768795013427730,27.3538093566894530,71,136,104,88,60,10732,2148648420,2149651913,2149980781,2147704018,2199031945,2217143040,2216500763,2156879789,2326,-2,9,1362
1367691867,5806,39.5999984741210940,23.0853004455566400,36.3596992492675800,261.9826049804687500,-11.7665100097656250,23.0876693725585940,27.4132308959960940,72,137,106,90,61,10733,2148778669,2149814875,2150180736,2147733586,2201788013,2220140214,2219107218,2157532598,2178,-1,9,23274
1367691900,5806,37.7999992370605500,23.0888004302978500,36.3605003356933600,262.8887023925781000,-11.8481397628784180,23.0901908874511720,27.3755493164062500,73,134,107,88,60,10741,2148858331,2149856539,2150204790,2147764562,2204999195,2223108470,2221007881,2158418404,2204,-3,9,45005
1367691946,5805,35.3300018310546900,23.1012992858886720,36.3618011474609400,263.2192077636719000,-12.2444801330566400,23.1024208068847660,27.3573608398437500,73,137,106,90,61,10738,2148884736,2149861010,2150182820,2147780333,2206000384,2223233856,2220451309,2158810221,2210,-3,8,51786